CZ-6A DEB, 54429

Orbit data source: Space-Track

CZ-6A DEB, 54429 is space debris in SSO originally from a launch on Fri, 11 Nov 2022 UTC launched from the Taiyaun Space Center, China (TSC). Debris objects in space refer to the collection of defunct objects orbiting the Earth. Examples of debris include non-operational satellites, rocket bodies, and fragments generated from explosions, collisions, or faulty payload assembly.

Loading next visibility...
Identifier
54429, 2022-151FD
Orbit
SSO
Country
Flag of CNCN / PRC
Related business
Manufacturer
SAST
Mission
Spacecraft
Bus & Motor
Unknown
Mass
Unknown
Launch date (UTC)
2022-11-11 (4 years ago)
Launch vehicle
Unknown
Launch site
Taiyaun Space Center, China (TSC)
Object type
Payload
Rocket body
Debris
Shape & HBR
Unknown shape, 0.2 m
Radar Cross Section
Medium (>0.1 m² and <1 m²)

Expand to show TLE details & history
Last TLE update: 10 hours ago

TLE from 10 hours ago
0 CZ-6A DEB
1 54429U 22151FD  26236.18605359  .00000171  00000-0  16945-3 0  9998
2 54429  99.0570 205.0264 0165685 297.2884  61.1483 13.85519027190954
Epoch: 2026-08-24T04:27Z
TLE epoch observation values (Epoch: 2026-08-24T04:27:55.030Z)
Latitude
-0.00003°
Longitude
165.57574°
Altitude
890.24 km
Speed
7.436 km/s
True Right ascension
13h 40m 06s
True Declination
0° 00' 00"
Sunlit
Object was in daylight at epoch
Visualization orbit readout
Latitude
Unknown
Longitude
Unknown
Altitude
Unknown
Speed
Unknown
Apparent Right ascension
Unknown
Apparent Declination
Unknown
Sunlit
N/A
Visualization observer readout
Local Sidereal Time
05:49:51
Azimuth
Unknown
Elevation
Unknown
Doppler factor
Unknown
Orbital elements
Apogee altitude
1,062.874 km
Perigee altitude
820.32 km
Semi-major axis
7,319.734 km
Eccentricity
0.01657
Inclination
99.057°
RAAN
205.0264°
Arg. of periapsis
297.2884°
True anomaly
62.82778°
Mean anomaly
61.1483°
Eccentric anomaly
61.98638°
Mean motion
3.46577 °/min
Orbital period
103.87 mins
BSTAR
0.00016945
Loading maneuver chart data...
Computing Atmospheric mass density...
Loading historical data...
Loading historical data...
Loading historical data...
Loading historical data...
Loading historical data...
Loading historical data...
Loading historical data...

Documentation

Showing up to 5 results
|